DW6368 Weather Reports


Display with metric or nautical units.
time (UTC)temp
F
wind
direction
speed
MPH
gust
MPH
rain 1hr
in
rain 24hr
in
rain mn
in
humidity
%
barometer
mb
20260507122803 54 178 0.0 1.0 0.00 0.00 0.00 96 1014.9
20260507121824 54 51 0.0 1.0 0.00 0.00 0.00 96 1014.8
20260507115802 54 17 0.0 1.0 0.00 0.00 0.00 96 1014.9
20260507114802 54 30 0.0 1.0 0.00 0.00 0.00 96 1014.9
20260507112802 55 265 0.0 1.0 0.00 0.00 0.00 96 1015.0
20260507111824 55 45 1.0 1.0 0.00 0.00 0.00 96 1015.0
20260507105824 55 9 0.0 0.0 0.00 0.00 0.00 95 1015.2
20260507104803 55 265 0.0 1.0 0.00 0.00 0.00 95 1015.2
20260507102803 55 51 0.0 1.0 0.00 0.00 0.00 95 1015.3
20260507101845 56 231 0.0 1.0 0.00 0.00 0.00 95 1015.3
20260507095803 56 32 0.0 1.0 0.00 0.00 0.00 94 1015.3
20260507094803 56 13 0.0 1.0 0.00 0.00 0.00 94 1015.4
20260507092803 56 355 0.0 1.0 0.00 0.00 0.00 94 1015.5
20260507091803 57 14 0.0 1.0 0.00 0.00 0.00 94 1015.7
20260507085802 57 9 0.0 1.0 0.00 0.00 0.00 93 1015.8
20260507084803 57 41 0.0 1.0 0.00 0.00 0.00 93 1015.8
20260507082823 58 139 0.0 1.0 0.00 0.00 0.00 93 1016.0
20260507081803 58 51 0.0 1.0 0.00 0.00 0.00 92 1016.1
20260507075824 58 16 0.0 2.0 0.00 0.12 0.00 92 1016.2
20260507074803 58 335 0.0 2.0 0.00 0.00 0.00 91 1016.2
20260507072803 59 26 0.0 2.0 0.00 0.00 0.00 90 1016.3
20260507071803 59 349 0.0 2.0 0.00 0.00 0.00 89 1016.3
20260507065803 60 13 0.0 1.0 0.00 0.00 0.00 88 1016.4
20260507064803 60 18 0.0 1.0 0.00 0.00 0.00 88 1016.3
20260507062803 60 322 0.0 3.0 0.00 0.00 0.00 88 1016.3
20260507061802 60 320 1.0 4.0 0.00 0.00 0.00 88 1016.4
20260507055803 60 46 1.0 2.0 0.00 0.00 0.00 86 1016.5
20260507054803 61 14 0.0 1.0 0.00 0.00 0.00 86 1016.5
20260507052803 61 5 1.0 2.0 0.00 0.00 0.00 84 1016.4
20260507051802 61 38 1.0 4.0 0.00 0.00 0.00 84 1016.5
20260507045824 62 302 2.0 3.0 0.00 0.00 0.00 83 1016.4
20260507044803 62 325 1.0 4.0 0.00 0.00 0.00 84 1016.4
20260507042803 63 359 1.0 5.0 0.00 0.00 0.00 83 1016.3
20260507041802 63 308 2.0 5.0 0.00 0.00 0.00 83 1016.3
20260507035802 63 307 1.0 4.0 0.00 0.00 0.00 79 1016.1
20260507034803 64 307 2.0 5.0 0.00 0.00 0.00 77 1016.0
20260507032803 64 308 3.0 5.0 0.00 0.00 0.00 75 1015.8
20260507031803 64 317 1.0 5.0 0.00 0.00 0.00 75 1015.6
20260507025802 65 301 4.0 10.0 0.00 0.00 0.00 73 1015.5
20260507024803 65 297 5.0 10.0 0.00 0.00 0.00 74 1015.4
20260507015803 69 283 5.0 10.0 0.00 0.00 0.00 66 1014.9
20260507014802 70 313 3.0 9.0 0.00 0.00 0.00 65 1014.9
20260507012803 70 301 4.0 11.0 0.00 0.00 0.00 66 1014.7
20260507011824 70 283 5.0 12.0 0.00 0.00 0.00 66 1014.6
20260507005803 71 285 4.0 11.0 0.00 0.00 0.00 65 1014.5
20260507004802 72 303 7.0 13.0 0.00 0.00 0.00 63 1014.5
20260507002802 73 277 7.0 12.0 0.00 0.00 0.00 58 1014.5
20260507001803 75 293 6.0 12.0 0.00 0.00 0.00 57 1014.4
20260506235802 77 228 3.0 9.0 0.00 0.00 0.00 57 1014.4
20260506234803 76 240 2.0 9.0 0.00 0.00 0.00 57 1014.4
20260506232803 76 224 5.0 13.0 0.00 0.00 0.00 58 1014.4
20260506231803 76 232 4.0 10.0 0.00 0.00 0.00 58 1014.5
20260506225802 75 216 4.0 16.0 0.00 0.00 0.00 60 1014.8
20260506224803 75 237 4.0 10.0 0.00 0.00 0.00 57 1014.9
20260506222803 75 240 6.0 11.0 0.00 0.00 0.00 58 1015.1
20260506221802 75 220 4.0 12.0 0.00 0.00 0.00 61 1015.0
20260506215803 74 236 5.0 14.0 0.00 0.00 0.00 61 1015.5
20260506214824 74 212 2.0 12.0 0.00 0.00 0.00 59 1015.6
20260506212803 74 224 5.0 11.0 0.00 0.00 0.00 60 1015.8
20260506211803 74 232 4.0 11.0 0.00 0.00 0.00 60 1016.0
20260506205803 73 229 4.0 11.0 0.00 0.00 0.00 58 1016.1
20260506204803 73 250 4.0 12.0 0.00 0.00 0.00 60 1016.2
20260506202802 73 212 4.0 10.0 0.00 0.00 0.00 61 1016.4
20260506201803 73 216 3.0 10.0 0.00 0.00 0.00 60 1016.6
20260506195803 72 221 4.0 10.0 0.00 0.00 0.00 63 1016.7
20260506194802 73 211 3.0 11.0 0.00 0.00 0.00 61 1016.8
20260506192803 72 208 3.0 9.0 0.00 0.00 0.00 61 1016.9
20260506191803 72 222 4.0 9.0 0.00 0.00 0.00 64 1017.0
20260506185803 73 219 2.0 9.0 0.00 0.00 0.00 64 1017.2
20260506184803 72 210 2.0 7.0 0.00 0.00 0.00 66 1017.3
20260506182803 72 210 3.0 7.0 0.00 0.00 0.00 67 1017.4
20260506181824 71 201 3.0 10.0 0.00 0.00 0.00 68 1017.4
20260506175802 71 177 2.0 6.0 0.00 0.00 0.00 71 1017.5
20260506174803 70 225 5.0 12.0 0.00 0.00 0.00 70 1017.6
20260506172803 69 213 2.0 9.0 0.00 0.00 0.00 70 1017.5
20260506171802 69 170 3.0 6.0 0.00 0.00 0.00 71 1017.5
20260506165824 70 178 2.0 7.0 0.00 0.00 0.00 68 1017.4
20260506164802 69 200 2.0 7.0 0.00 0.00 0.00 68 1017.4
20260506162802 69 317 2.0 6.0 0.00 0.00 0.00 68 1017.5
20260506161803 68 207 2.0 5.0 0.00 0.00 0.00 70 1017.4
20260506155824 67 147 1.0 5.0 0.00 0.00 0.00 72 1017.6
20260506154803 67 119 2.0 5.0 0.00 0.00 0.00 74 1017.6
20260506152802 65 61 3.0 5.0 0.00 0.00 0.00 77 1017.6
20260506151824 63 79 2.0 5.0 0.00 0.00 0.00 79 1017.7
20260506145803 61 93 2.0 5.0 0.00 0.00 0.00 81 1017.6
20260506144803 60 105 2.0 5.0 0.00 0.00 0.00 84 1017.6
20260506142823 56 88 1.0 3.0 0.00 0.00 0.00 95 1017.6
20260506141803 55 82 1.0 4.0 0.00 0.00 0.00 99 1017.5
20260506135803 52 63 0.0 2.0 0.00 0.00 0.00 98 1017.4
20260506134802 52 324 0.0 1.0 0.00 0.00 0.00 98 1017.4
20260506132803 52 264 0.0 1.0 0.00 0.00 0.00 97 1017.3
20260506131802 52 297 0.0 1.0 0.00 0.00 0.00 97 1017.0
20260506125803 52 51 0.0 1.0 0.00 0.00 0.00 96 1016.8
20260506124802 52 15 0.0 1.0 0.00 0.00 0.00 96 1016.8